sat.trackr.live / text

‹ back to catalog

CE-SAT-IE

NORAD 58987 · 2024-032A

PAYLOAD ACTIVE UNKNOWN

§ Identity

Operator
Country
JPN
Launch date
2024-02-17
Launch site
TANSC
Launch vehicle
Mass (kg)
RCS (m²)

External: N2YO · Heavens-Above · Gunter

§ Orbital elements

Epoch: 2026-05-25T03:13:53.690016Z

Period
98.08 min
Inclination
97.9976°
Eccentricity
0.0003621
Mean motion
14.68262185 rev/d
Perigee alt
664.1 km
Apogee alt
669.2 km
Semi-major
7,044.8 km
B*
6.0653e-5
RAAN
200.3368°
Arg perigee
134.5091°
Mean anomaly
225.6411°
Rev number
12,145

§ Raw data

CE-SAT-IE1 58987U 24032A   26145.13464919  .00000302  00000+0  60653-4 0  99912 58987  97.9976 200.3368 0003621 134.5091 225.6411 14.68262185121450

JSON: /api/v1/satellites/58987 · /tle

For live sub-satellite position, see the globe view (requires WebGL).

§ Visibility from observer

Set your observer location to see the next 7 days of passes ≥ 10°. The values pass through the URL so the page stays shareable.

No JS? Fill the form by hand. The geolocation button needs JavaScript.